Date String (YYYY-MM-DD hh:mm:ss) UTC,Instrument flags,Ambient pressure (hPa),Sample flow (lpm),Bypass flow (lpm),Sample temperature (°C),Ambient temperature (°C),ASC tube jacket temperature (°C),LED temperature (°C),Box temperature (°C),Sample RH (%),Span deviation,Mass concentration (μg/m³),Mass concentration (μg/m³),Mass concentration (μg/m³)
DateTimeUTC,F1_M11,P_M11,Q1_M11,Q2_M11,T1_M11,T2_M11,T3_M11,T4_M11,T5_M11,U1_M11,ZSPAN_M11,X0_M11,X2_M11,X1_M11
2022-04-08 19:00:00,,0829.5,5.00,0.00,24.9,24.4,00.0,33.8,26.8,07.4,0000.0,0010.70,0003.01,0001.71
2022-04-08 19:01:00,,0829.5,5.02,0.00,25.0,24.4,00.0,33.8,26.8,07.3,0000.0,0010.70,0002.95,0001.72
2022-04-08 19:02:00,,0829.5,4.99,0.00,25.0,24.4,00.0,33.8,26.8,07.4,0000.0,0010.64,0002.98,0001.72
2022-04-08 19:03:00,,0829.5,5.00,0.00,25.0,24.4,00.0,33.8,26.9,07.2,0000.0,0010.04,0002.97,0001.72
2022-04-08 19:04:00,,0829.5,5.00,0.00,25.0,24.5,00.0,33.8,26.9,07.3,0000.0,0009.95,0002.99,0001.71
2022-04-08 19:05:00,,0829.5,5.01,0.00,25.1,24.5,00.0,33.8,26.9,07.5,0000.0,0010.07,0002.97,0001.70
2022-04-08 19:06:00,,0829.5,5.01,0.00,25.1,24.5,00.0,33.9,26.9,07.3,0000.0,0010.45,0002.95,0001.72
2022-04-08 19:07:00,,0829.4,5.00,0.00,25.1,24.5,00.0,33.9,27.0,07.4,0000.0,0010.44,0002.96,0001.73
2022-04-08 19:08:00,,0829.4,4.99,0.00,25.1,24.5,00.0,33.9,27.0,07.5,0000.0,0010.42,0002.99,0001.75
2022-04-08 19:09:00,,0829.4,5.00,0.00,25.1,24.5,00.0,33.9,27.0,07.3,0000.0,0010.47,0002.96,0001.75
2022-04-08 19:10:00,,0829.4,4.99,0.00,25.1,24.5,00.0,33.9,27.0,07.3,0000.0,0009.92,0002.88,0001.73
2022-04-08 19:11:00,,0829.3,5.00,0.00,25.1,24.5,00.0,33.9,27.0,07.3,0000.0,0010.24,0002.88,0001.73
2022-04-08 19:12:00,,0829.3,5.00,0.00,25.1,24.5,00.0,34.0,27.0,07.0,0000.0,0011.07,0002.87,0001.72
2022-04-08 19:13:00,,0829.3,5.00,0.00,25.2,24.6,00.0,34.0,27.1,07.4,0000.0,0011.18,0002.89,0001.73
2022-04-08 19:14:00,,0829.3,5.00,0.00,25.2,24.6,00.0,34.0,27.1,07.3,0000.0,0011.83,0002.82,0001.70
2022-04-08 19:15:00,,0829.3,5.00,0.00,25.2,24.6,00.0,34.0,27.1,07.3,0000.0,0011.70,0002.79,0001.70
2022-04-08 19:16:00,,0829.3,5.01,0.00,25.2,24.7,00.0,34.0,27.1,07.5,0000.0,0010.89,0002.80,0001.71
2022-04-08 19:17:00,,0829.4,5.00,0.00,25.3,24.7,00.0,34.0,27.1,07.4,0000.0,0010.52,0002.80,0001.69
2022-04-08 19:18:00,,0829.2,5.01,0.00,25.3,24.7,00.0,34.1,27.2,07.4,0000.0,0010.63,0002.77,0001.67
2022-04-08 19:19:00,,0829.3,4.99,0.00,25.3,24.7,00.0,34.1,27.2,07.9,0000.0,0011.28,0002.75,0001.66
2022-04-08 19:20:00,,0829.2,5.01,0.00,25.3,24.7,00.0,34.1,27.2,07.3,0000.0,0011.36,0002.74,0001.65
2022-04-08 19:21:00,,0829.2,4.99,0.00,25.3,24.7,00.0,34.1,27.2,07.2,0000.0,0011.56,0002.76,0001.65
2022-04-08 19:22:00,,0829.3,5.00,0.00,25.3,24.8,00.0,34.1,27.2,07.4,0000.0,0011.41,0002.76,0001.64
2022-04-08 19:23:00,,0829.2,5.00,0.00,25.3,24.8,00.0,34.1,27.2,07.4,0000.0,0010.74,0002.85,0001.65
2022-04-08 19:24:00,,0829.2,5.01,0.00,25.4,24.8,00.0,34.2,27.2,07.3,0000.0,0009.79,0002.79,0001.63
2022-04-08 19:25:00,,0829.2,5.00,0.00,25.4,24.8,00.0,34.2,27.3,07.3,0000.0,0009.08,0002.84,0001.65
2022-04-08 19:26:00,,0829.1,5.00,0.00,25.4,24.8,00.0,34.2,27.3,07.2,0000.0,0008.98,0002.87,0001.65
2022-04-08 19:27:00,,0829.1,5.00,0.00,25.4,24.8,00.0,34.2,27.3,07.7,0000.0,0009.01,0002.86,0001.64
2022-04-08 19:28:00,,0829.2,5.02,0.00,25.4,24.8,00.0,34.2,27.3,08.0,0000.0,0008.86,0002.88,0001.63
2022-04-08 19:29:00,,0829.1,5.00,0.00,25.4,24.8,00.0,34.2,27.3,07.2,0000.0,0009.75,0002.95,0001.65
2022-04-08 19:30:00,,0829.1,5.00,0.00,25.4,24.8,00.0,34.2,27.4,07.4,0000.0,0009.08,0002.97,0001.67
2022-04-08 19:31:00,,0829.0,5.00,0.00,25.5,24.8,00.0,34.3,27.3,07.1,0000.0,0008.78,0002.99,0001.69
2022-04-08 19:32:00,,0829.1,5.00,0.00,25.5,24.8,00.0,34.3,27.3,07.0,0000.0,0009.05,0002.99,0001.70
2022-04-08 19:33:00,,0829.1,5.00,0.00,25.5,24.9,00.0,34.3,27.3,07.0,0000.0,0008.77,0003.08,0001.73
2022-04-08 19:34:00,,0829.1,5.00,0.00,25.5,24.9,00.0,34.3,27.3,07.1,0000.0,0008.69,0003.09,0001.74
2022-04-08 19:35:00,,0829.1,5.00,0.00,25.5,24.9,00.0,34.3,27.3,07.4,0000.0,0008.81,0003.08,0001.75
2022-04-08 19:36:00,,0829.0,5.00,0.00,25.5,24.9,00.0,34.3,27.4,07.5,0000.0,0009.70,0003.08,0001.76
2022-04-08 19:37:00,,0829.0,5.00,0.00,25.5,24.9,00.0,34.3,27.4,07.6,0000.0,0010.07,0003.11,0001.76
2022-04-08 19:38:00,,0829.0,5.00,0.00,25.5,24.9,00.0,34.3,27.4,07.3,0000.0,0010.27,0003.07,0001.76
2022-04-08 19:39:00,,0829.0,5.01,0.00,25.5,24.9,00.0,34.3,27.4,07.0,0000.0,0010.59,0003.05,0001.77
2022-04-08 19:40:00,,0829.0,5.01,0.00,25.5,24.9,00.0,34.4,27.4,07.0,0000.0,0010.51,0003.04,0001.76
2022-04-08 19:41:00,,0829.0,4.99,0.00,25.6,24.9,00.0,34.4,27.4,07.3,0000.0,0010.47,0002.99,0001.74
2022-04-08 19:42:00,,0829.0,4.99,0.00,25.5,24.9,00.0,34.4,27.4,07.2,0000.0,0010.28,0002.93,0001.73
2022-04-08 19:43:00,,0829.0,5.00,0.00,25.6,24.9,00.0,34.4,27.4,07.2,0000.0,0010.26,0002.95,0001.74
2022-04-08 19:44:00,,0829.0,5.00,0.00,25.6,24.9,00.0,34.4,27.4,07.1,0000.0,0009.72,0003.00,0001.76
2022-04-08 19:45:00,,0828.9,5.00,0.00,25.6,24.9,00.0,34.4,27.4,07.2,0000.0,0009.44,0002.90,0001.76
2022-04-08 19:46:00,,0828.9,5.00,0.00,25.6,25.0,00.0,34.4,27.4,07.3,0000.0,0010.10,0002.87,0001.76
2022-04-08 19:47:00,,0829.0,5.00,0.00,25.6,25.0,00.0,34.4,27.5,07.3,0000.0,0009.34,0002.83,0001.77
2022-04-08 19:48:00,,0828.8,5.00,0.00,25.6,25.0,00.0,34.4,27.5,07.6,0000.0,0009.41,0002.79,0001.77
2022-04-08 19:49:00,,0829.1,4.99,0.00,25.6,25.0,00.0,34.4,27.5,07.3,0000.0,0009.38,0002.81,0001.77
2022-04-08 19:50:00,,0829.3,4.99,0.00,25.6,25.1,00.0,34.5,27.5,07.3,0000.0,0009.00,0002.76,0001.78
2022-04-08 19:51:00,,0828.8,5.00,0.00,25.7,25.1,00.0,34.5,27.5,07.1,0000.0,0008.11,0002.69,0001.78
2022-04-08 19:52:00,,0828.7,5.00,0.00,25.7,25.1,00.0,34.5,27.6,07.2,0000.0,0007.94,0002.70,0001.79
2022-04-08 19:53:00,,0828.7,5.01,0.00,25.7,25.1,00.0,34.5,27.6,07.8,0000.0,0008.00,0002.76,0001.78
2022-04-08 19:54:00,,0828.7,5.01,0.00,25.7,25.1,00.0,34.5,27.6,07.2,0000.0,0007.96,0002.79,0001.77
2022-04-08 19:55:00,,0828.7,4.99,0.00,25.7,25.1,00.0,34.5,27.6,07.0,0000.0,0007.72,0002.73,0001.74
2022-04-08 19:56:00,,0828.6,5.00,0.00,25.7,25.1,00.0,34.5,27.6,07.0,0000.0,0007.97,0002.75,0001.73
2022-04-08 19:57:00,,0828.6,5.00,0.00,25.7,25.1,00.0,34.6,27.6,07.0,0000.0,0007.54,0002.80,0001.72
2022-04-08 19:58:00,,0828.9,5.00,0.00,25.8,25.2,00.0,34.6,27.7,07.1,0000.0,0007.52,0002.93,0001.70
2022-04-08 19:59:00,,0829.0,5.00,0.00,25.8,25.2,00.0,34.6,27.7,07.0,0000.0,0007.15,0003.06,0001.71
